Погода в Спасском-Городище

Россия / Владимирская область     56°21′50″N   40°31′51″E
темп.,
°C
ветер,
м/с
пор.,
м/с
влажн.,
%
обл.,
%
осадки,
мм/ч
давл.,
гПа
погр.,
м
20 апреля, вт
вт2000:00+3всв51156100 0.0 1026558
03:00+2в51155100 0.0 1026499
06:00+1в5116254 0.0 1025412
09:00+5в61054100 0.0 1025617
12:00+8в71051100 0.0 10231193
15:00+10вюв61151100 0.0 10211616
18:00+6вюв51281100 0.9 10201136
21:00+5вюв61485100 1.3 10181069
21 апреля, ср
ср2100:00+5в81582100 0.9 10141001
03:00+2в81897100 5.5 1009895
06:00+4вюв91990100 3.4 10051033
09:00+7юв91792100 3.6 10031110
12:00+7юв91690100 0.2 1002974
15:00+3юз51097100 3.1 1005545
18:00+4ююз5989100 0.1 1008872
21:00+4ююз51092100 0.1 1010634
22 апреля, чт
чт2200:00+4ююз51093100 0.0 1011615
03:00+4ююз4995100 0.1 1013551
06:00+4ююз4894100 0.1 1014654
09:00+4ююз3696100 0.8 1016551
12:00+8ююз467576 0.0 1016928
15:00+10ююз577053 0.3 10171000
18:00+10ююз487010 0.3 1017609
21:00+6ююв39887 0.3 1018168
23 апреля, пт
пт2300:00+4ююв379328 0.0 1018130
03:00+4ююв389453 0.0 1018164
06:00+4ююв399717 0.0 1017205
09:00+11ю577724 0.0 1017473
12:00+16ю585553 0.0 10161458
15:00+17ю694855 0.8 10152188
18:00+14ююв5126399 0.1 1015477
21:00+12ююв51268100 0.1 1015413
24 апреля, сб
сб2400:00+9ююв412795 0.0 1014310
03:00+7юв412855 0.0 1013288
06:00+8юв5138760 0.1 1011349
09:00+13ююв7126791 0.2 1010865
12:00+15ю7115895 0.8 10091927
15:00+8з5682100 2.4 1009526
18:00+3з61197100 4.0 1010576
21:00+4зсз4992100 7.5 1011573